Tracking 35334 objects as of 13-Sep-2026
HD Live streaming from Space Station
objects crossing your sky now

STARLINK-30297

Track STARLINK-30297 now!
10-day predictions
STARLINK-30297 is classified as:


NORAD ID: 57682
Int'l Code: 2023-124V
Launch date: August 22, 2023
Source: United States (US)
Launch site: AIR FORCE WESTERN TEST RANGE (AFWTR)
Your satellite tracking list
Your tracking list is empty




NASA's NSSDC Master Catalog

Two Line Element Set (TLE):
1 57682U 23124V   26256.14381329  .00022426  00000-0  67157-3 0  9997
2 57682  53.1618  55.7433 0001357  56.5913 303.5219 15.34460943172277
Source of the keplerian elements: AFSPC